Date String (YYYY-MM-DD hh:mm:ss) UTC,Instrument flags,Ambient pressure (hPa),Sample flow (lpm),Bypass flow (lpm),Sample temperature (°C),Ambient temperature (°C),ASC tube jacket temperature (°C),LED temperature (°C),Box temperature (°C),Sample RH (%),Span deviation,Mass concentration (μg/m³),Mass concentration (μg/m³),Mass concentration (μg/m³)
DateTimeUTC,F1_M11,P_M11,Q1_M11,Q2_M11,T1_M11,T2_M11,T3_M11,T4_M11,T5_M11,U1_M11,ZSPAN_M11,X2_M11,X0_M11,X1_M11
2021-10-19 01:00:00,,0818.4,5.00,0.00,30.1,29.2,00.0,39.0,31.9,10.4,0000.0,0003.65,0012.55,0002.12
2021-10-19 01:01:00,,0818.4,5.00,0.00,30.0,27.4,00.0,39.0,31.4,10.4,0000.0,0003.64,0013.17,0002.10
2021-10-19 01:02:00,,0818.4,5.00,0.00,29.8,26.4,00.0,39.0,31.1,10.6,0000.0,0003.60,0012.59,0002.08
2021-10-19 01:03:00,,0818.4,5.00,0.00,29.8,26.6,00.0,39.0,31.2,10.4,0000.0,0003.54,0012.11,0002.08
2021-10-19 01:04:00,,0818.4,5.01,0.00,29.7,27.0,00.0,38.9,31.2,10.6,0000.0,0003.52,0011.96,0002.08
2021-10-19 01:05:00,,0818.4,4.99,0.00,29.7,27.4,00.0,38.9,31.3,10.6,0000.0,0003.49,0012.42,0002.10
2021-10-19 01:06:00,,0818.4,4.99,0.00,29.7,27.8,00.0,38.9,31.4,10.6,0000.0,0003.47,0012.33,0002.09
2021-10-19 01:07:00,,0818.4,5.00,0.00,29.7,28.1,00.0,38.9,31.5,10.6,0000.0,0003.51,0012.30,0002.10
2021-10-19 01:08:00,,0818.4,5.00,0.00,29.7,28.3,00.0,38.8,31.5,10.6,0000.0,0003.49,0012.28,0002.10
2021-10-19 01:09:00,,0818.4,4.99,0.00,29.8,28.5,00.0,38.9,31.6,10.6,0000.0,0003.54,0012.82,0002.11
2021-10-19 01:10:00,,0818.5,5.01,0.00,29.8,28.6,00.0,38.9,31.6,10.7,0000.0,0003.56,0012.87,0002.11
2021-10-19 01:11:00,,0818.4,5.00,0.00,29.8,28.8,00.0,38.9,31.6,10.6,0000.0,0003.53,0012.73,0002.10
2021-10-19 01:12:00,,0818.5,4.98,0.00,29.9,28.9,00.0,38.9,31.7,10.6,0000.0,0003.54,0012.30,0002.09
2021-10-19 01:13:00,,0818.5,5.01,0.00,29.9,29.0,00.0,38.9,31.7,10.5,0000.0,0003.50,0011.82,0002.08
2021-10-19 01:14:00,,0818.5,5.01,0.00,29.9,29.0,00.0,38.9,31.8,10.4,0000.0,0003.54,0011.86,0002.08
2021-10-19 01:15:00,,0818.5,5.00,0.00,30.0,29.1,00.0,38.9,31.8,10.4,0000.0,0003.53,0011.33,0002.08
2021-10-19 01:16:00,,0818.6,5.00,0.00,30.0,29.2,00.0,39.0,31.8,10.4,0000.0,0003.55,0011.67,0002.08
2021-10-19 01:17:00,,0818.7,5.02,0.00,30.0,29.2,00.0,39.0,31.9,10.5,0000.0,0003.58,0011.26,0002.11
2021-10-19 01:18:00,,0818.6,4.98,0.00,30.1,29.3,00.0,39.0,31.9,10.4,0000.0,0003.56,0011.27,0002.11
2021-10-19 01:19:00,,0818.5,5.01,0.00,30.1,29.3,00.0,39.0,31.9,10.4,0000.0,0003.65,0011.86,0002.12
2021-10-19 01:20:00,,0818.5,5.00,0.00,30.1,29.0,00.0,39.0,31.9,10.4,0000.0,0003.63,0011.31,0002.10
2021-10-19 01:21:00,,0818.4,4.99,0.00,30.0,27.0,00.0,39.0,31.4,10.5,0000.0,0003.58,0010.83,0002.09
2021-10-19 01:22:00,,0818.5,5.00,0.00,29.9,26.4,00.0,39.0,31.2,10.5,0000.0,0003.62,0010.85,0002.09
2021-10-19 01:23:00,,0818.4,4.99,0.00,29.8,26.6,00.0,39.0,31.2,10.6,0000.0,0003.61,0010.63,0002.11
2021-10-19 01:24:00,,0818.4,5.00,0.00,29.7,27.1,00.0,38.9,31.2,10.6,0000.0,0003.68,0011.02,0002.12
2021-10-19 01:25:00,,0818.5,5.01,0.00,29.7,27.4,00.0,38.9,31.3,10.6,0000.0,0003.73,0011.39,0002.13
2021-10-19 01:26:00,,0818.5,4.99,0.00,29.7,27.8,00.0,38.9,31.4,10.6,0000.0,0003.75,0011.64,0002.14
2021-10-19 01:27:00,,0818.5,5.00,0.00,29.7,28.1,00.0,38.9,31.4,10.6,0000.0,0003.74,0011.53,0002.14
2021-10-19 01:28:00,,0818.5,5.01,0.00,29.7,28.3,00.0,38.9,31.5,10.6,0000.0,0003.73,0011.29,0002.12
2021-10-19 01:29:00,,0818.5,4.99,0.00,29.8,28.5,00.0,38.9,31.5,10.6,0000.0,0003.73,0011.11,0002.12
2021-10-19 01:30:00,,0818.5,5.01,0.00,29.8,28.6,00.0,38.9,31.6,10.5,0000.0,0003.68,0011.05,0002.11
2021-10-19 01:31:00,,0818.5,5.00,0.00,29.8,28.8,00.0,38.9,31.7,10.5,0000.0,0003.64,0012.77,0002.11
2021-10-19 01:32:00,,0818.6,4.99,0.00,29.9,28.9,00.0,38.9,31.7,10.5,0000.0,0003.68,0012.95,0002.12
2021-10-19 01:33:00,,0818.5,5.00,0.00,29.9,29.0,00.0,38.9,31.7,10.5,0000.0,0003.72,0013.27,0002.14
2021-10-19 01:34:00,,0818.4,5.00,0.00,29.9,29.0,00.0,38.9,31.8,10.4,0000.0,0003.73,0013.93,0002.14
2021-10-19 01:35:00,,0818.4,5.00,0.00,30.0,29.1,00.0,38.9,31.8,10.4,0000.0,0003.67,0014.46,0002.13
2021-10-19 01:36:00,,0818.5,5.00,0.00,30.0,29.2,00.0,39.0,31.9,10.3,0000.0,0003.60,0013.46,0002.13
2021-10-19 01:37:00,,0818.5,4.99,0.00,30.0,29.2,00.0,39.0,31.9,10.4,0000.0,0003.60,0013.79,0002.11
2021-10-19 01:38:00,,0818.5,5.00,0.00,30.1,29.3,00.0,39.0,31.9,10.4,0000.0,0003.61,0013.82,0002.09
2021-10-19 01:39:00,,0818.5,5.00,0.00,30.1,29.3,00.0,39.0,31.9,10.3,0000.0,0003.60,0014.05,0002.10
2021-10-19 01:40:00,,0818.5,5.00,0.00,30.1,29.4,00.0,39.1,32.0,10.2,0000.0,0003.60,0014.84,0002.11
2021-10-19 01:41:00,,0818.5,5.00,0.00,30.2,29.3,00.0,39.1,32.0,10.2,0000.0,0003.56,0014.60,0002.11
2021-10-19 01:42:00,,0818.5,5.01,0.00,30.1,27.6,00.0,39.1,31.5,10.3,0000.0,0003.57,0012.70,0002.10
2021-10-19 01:43:00,,0818.5,4.99,0.00,29.9,26.4,00.0,39.1,31.2,10.4,0000.0,0003.57,0012.40,0002.11
2021-10-19 01:44:00,,0818.5,5.00,0.00,29.8,26.5,00.0,39.0,31.2,10.5,0000.0,0003.54,0012.23,0002.12
2021-10-19 01:45:00,,0818.5,5.00,0.00,29.7,26.9,00.0,39.0,31.2,10.5,0000.0,0003.54,0012.42,0002.13
2021-10-19 01:46:00,,0818.5,4.99,0.00,29.7,27.4,00.0,38.9,31.3,10.5,0000.0,0003.57,0011.86,0002.14
2021-10-19 01:47:00,,0818.5,5.00,0.00,29.7,27.7,00.0,38.9,31.3,10.5,0000.0,0003.62,0012.07,0002.13
2021-10-19 01:48:00,,0818.5,4.99,0.00,29.7,28.0,00.0,38.9,31.4,10.5,0000.0,0003.64,0012.58,0002.13
2021-10-19 01:49:00,,0818.5,5.01,0.00,29.8,28.2,00.0,38.9,31.4,10.5,0000.0,0003.67,0011.81,0002.16
2021-10-19 01:50:00,,0818.4,5.00,0.00,29.8,28.4,00.0,38.9,31.5,10.5,0000.0,0003.68,0011.51,0002.17
2021-10-19 01:51:00,,0818.5,5.00,0.00,29.8,28.6,00.0,38.9,31.6,10.5,0000.0,0003.66,0011.97,0002.17
2021-10-19 01:52:00,,0818.4,5.01,0.00,29.8,28.7,00.0,38.9,31.6,10.4,0000.0,0003.66,0012.79,0002.17
2021-10-19 01:53:00,,0818.4,5.01,0.00,29.9,28.8,00.0,38.9,31.7,10.4,0000.0,0003.68,0012.78,0002.18
2021-10-19 01:54:00,,0818.5,5.00,0.00,29.9,28.9,00.0,38.9,31.7,10.4,0000.0,0003.68,0013.99,0002.16
2021-10-19 01:55:00,,0818.5,4.99,0.00,29.9,29.0,00.0,38.9,31.8,10.4,0000.0,0003.65,0014.05,0002.13
2021-10-19 01:56:00,,0818.5,5.00,0.00,30.0,29.1,00.0,38.9,31.8,10.4,0000.0,0003.66,0013.51,0002.11
2021-10-19 01:57:00,,0818.5,5.01,0.00,30.0,29.1,00.0,39.0,31.8,10.4,0000.0,0003.63,0013.62,0002.09
2021-10-19 01:58:00,,0818.5,5.00,0.00,30.0,29.2,00.0,39.0,31.9,10.4,0000.0,0003.61,0014.17,0002.08
2021-10-19 01:59:00,,0818.5,4.99,0.00,30.0,29.2,00.0,39.0,31.9,10.4,0000.0,0003.58,0013.82,0002.07
